Location: Brede
(50.9167°N, 0.6000°E)
Time: 08:29:01
(UTC+00:00)

Tiros 1 - Pass Details

Date: 02 December 2020
Orbit: 630 x 663 km, 48.4° (Epoch: 16 January)

Event Time Altitude Azimuth Distance (km) Brightness Sun altitude
Rises 19:51:02 0° 279° (W) 2,988 11.6 -36.3°
Reaches altitude 10° 19:53:53 10° 264° (W) 2,068 10.4 -36.8°
Enters shadow 19:55:12 15° 250° (WSW) 1,736 9.8 -37.0°
